カタログに戻る

FENGYUN 1C DEB

LostPO
NORAD 32173·DEBRIS·🇨🇳 China

打ち上げ May 10, 1999 から Taiyuan Satellite Launch Center

Loading…

次のパス (今後24時間)

TLE

古いSource: Space-Track

元期: Aug 26, 2022, 15:40 UTC

1 32173U 99025CTT 22238.65341737  .00001389  00000-0  58320-3 0  9996
2 32173  99.6041  35.6468 0070386 353.5763   6.4505 14.26441053782316

AllMySatでFENGYUN 1C DEBをリアルタイム追跡

Download on the App Store